FW2795 Weather Reports


Display with metric or nautical units.
time (UTC)temp
F
wind
direction
speed
MPH
gust
MPH
rain 1hr
in
rain 24hr
in
rain mn
in
humidity
%
barometer
mb
20260506042311 48 52 2.0 9.0 0.00 0.00 0.00 80 1013.4
20260506041811 48 35 3.0 7.0 0.00 0.00 0.00 80 1013.4
20260506041300 48 21 2.0 3.0 0.00 0.00 0.00 80 1013.3
20260506040800 48 358 2.0 3.0 0.00 0.00 0.00 81 1013.3
20260506040314 48 6 2.0 4.0 0.00 0.00 0.00 80 1013.4
20260506035759 49 353 3.0 8.0 0.00 0.00 0.00 80 1013.4
20260506035259 49 343 1.0 2.0 0.00 0.00 0.00 81 1013.3
20260506034758 49 360 1.0 2.0 0.00 0.00 0.00 81 1013.5
20260506034258 49 9 1.0 5.0 0.00 0.00 0.00 81 1013.3
20260506033812 49 4 3.0 5.0 0.00 0.00 0.00 81 1013.3
20260506033302 49 54 3.0 4.0 0.00 0.00 0.00 81 1013.3
20260506032802 49 65 1.0 2.0 0.00 0.00 0.00 81 1013.3
20260506032305 49 32 1.0 3.0 0.00 0.00 0.00 82 1013.4
20260506031801 49 26 1.0 2.0 0.00 0.00 0.00 82 1013.6
20260506031301 49 21 1.0 2.0 0.00 0.00 0.00 82 1013.4
20260506030800 49 8 1.0 2.0 0.00 0.00 0.00 82 1013.5
20260506030315 49 17 2.0 2.0 0.00 0.00 0.00 82 1013.4
20260506025759 49 41 0.0 1.0 0.00 0.00 0.00 82 1013.4
20260506025259 49 45 1.0 3.0 0.00 0.00 0.00 82 1013.4
20260506024758 50 45 1.0 2.0 0.00 0.00 0.00 81 1013.3
20260506024313 50 38 2.0 2.0 0.00 0.00 0.00 81 1013.5
20260506023812 50 54 2.0 4.0 0.00 0.00 0.00 81 1013.4
20260506023317 50 59 3.0 7.0 0.00 0.00 0.00 81 1013.4
20260506022806 50 88 1.0 2.0 0.00 0.00 0.00 81 1013.4
20260506022306 50 68 1.0 2.0 0.00 0.00 0.00 80 1013.5
20260506021806 50 56 1.0 2.0 0.00 0.00 0.00 81 1013.5
20260506021305 50 40 1.0 2.0 0.00 0.00 0.00 81 1013.4
20260506020754 50 23 0.0 2.0 0.00 0.00 0.00 81 1013.5
20260506020309 50 45 1.0 2.0 0.00 0.00 0.00 82 1013.6
20260506015753 50 40 0.0 1.0 0.00 0.00 0.00 82 1013.6
20260506015253 50 38 2.0 5.0 0.00 0.00 0.00 82 1013.6
20260506014807 50 55 2.0 3.0 0.00 0.00 0.00 82 1013.5
20260506014307 50 73 0.0 1.0 0.00 0.00 0.00 82 1013.5
20260506013807 51 71 4.0 7.0 0.00 0.00 0.00 82 1013.4
20260506013306 51 310 2.0 4.0 0.00 0.00 0.00 82 1013.5
20260506012805 51 279 1.0 2.0 0.00 0.00 0.00 82 1013.5
20260506012308 51 266 2.0 4.0 0.00 0.00 0.00 82 1013.6
20260506011805 51 93 2.0 3.0 0.00 0.00 0.00 82 1013.5
20260506011254 51 52 1.0 3.0 0.00 0.00 0.00 81 1013.6
20260506010754 51 58 0.0 1.0 0.00 0.00 0.00 81 1013.7
20260506010253 51 58 2.0 4.0 0.00 0.00 0.00 81 1013.5
20260506005753 51 65 1.0 2.0 0.00 0.00 0.00 81 1013.7
20260506004753 51 58 1.0 2.0 0.00 0.00 0.00 80 1013.4
20260506004252 51 66 1.0 2.0 0.00 0.00 0.00 79 1013.5
20260506003752 51 48 0.0 1.0 0.00 0.00 0.00 79 1013.7
20260506002806 51 39 0.0 1.0 0.00 0.00 0.00 78 1013.6
20260506002256 51 45 0.0 1.0 0.00 0.00 0.00 78 1013.8
20260506001756 51 45 1.0 2.0 0.00 0.00 0.00 77 1013.5
20260506000755 51 46 4.0 8.0 0.00 0.00 0.00 76 1013.7
20260506000255 51 67 2.0 6.0 0.00 0.00 0.00 76 1013.6
20260505235755 52 58 2.0 4.0 0.00 0.00 0.00 75 1013.9
20260505234759 52 44 4.0 5.0 0.00 0.00 0.00 73 1013.7
20260505234249 52 43 4.0 10.0 0.00 0.00 0.00 72 1013.7
20260505233749 52 14 2.0 4.0 0.00 0.00 0.00 72 1013.6
20260505232803 52 39 2.0 4.0 0.00 0.00 0.00 71 1013.7
20260505232252 53 41 4.0 8.0 0.00 0.00 0.00 71 1013.4
20260505231752 53 55 3.0 4.0 0.00 0.00 0.00 71 1013.6
20260505230752 53 45 4.0 4.0 0.00 0.00 0.00 71 1013.7
20260505230251 53 29 3.0 4.0 0.00 0.00 0.00 71 1013.8
20260505225751 53 44 2.0 4.0 0.00 0.00 0.00 71 1013.7
20260505224806 53 58 3.0 4.0 0.00 0.00 0.00 71 1013.6
20260505224250 53 89 2.0 3.0 0.00 0.00 0.00 71 1013.6
20260505223750 54 86 4.0 11.0 0.00 0.00 0.00 70 1013.6
20260505222804 54 78 2.0 5.0 0.00 0.00 0.00 69 1013.6
20260505222249 54 85 4.0 7.0 0.00 0.00 0.00 69 1013.6
20260505221749 54 79 4.0 5.0 0.00 0.00 0.00 69 1013.5
20260505220804 55 12 2.0 4.0 0.00 0.00 0.00 69 1013.6
20260505220303 55 28 2.0 4.0 0.00 0.00 0.00 69 1013.6
20260505215753 55 25 2.0 4.0 0.00 0.00 0.00 68 1013.4
20260505214752 55 38 2.0 4.0 0.00 0.00 0.00 68 1013.3
20260505214252 55 51 1.0 3.0 0.00 0.00 0.00 68 1013.5
20260505213751 55 55 4.0 7.0 0.00 0.00 0.00 69 1013.4
20260505212806 56 103 2.0 5.0 0.00 0.00 0.00 70 1013.3
20260505212255 56 49 2.0 3.0 0.00 0.00 0.00 70 1013.4
20260505211755 56 73 1.0 2.0 0.00 0.00 0.00 70 1013.1
20260505210755 56 52 1.0 2.0 0.00 0.00 0.00 70 1013.2
20260505210252 56 61 2.0 3.0 0.00 0.00 0.00 71 1013.2
20260505205752 56 34 2.0 3.0 0.00 0.00 0.00 70 1013.2
20260505204752 56 69 2.0 4.0 0.00 0.00 0.00 70 1013.2
20260505204251 56 50 1.0 2.0 0.00 0.00 0.00 70 1013.1
20260505203751 56 64 2.0 2.0 0.00 0.00 0.00 69 1012.9
20260505202805 56 77 2.0 4.0 0.00 0.00 0.00 68 1012.9
20260505202250 56 92 3.0 5.0 0.00 0.00 0.00 67 1013.1
20260505201749 56 49 0.0 2.0 0.00 0.00 0.00 66 1013.0
20260505200804 56 49 2.0 4.0 0.00 0.00 0.00 66 1012.8
20260505200304 56 45 3.0 6.0 0.00 0.00 0.00 66 1013.0
20260505195753 56 232 1.0 3.0 0.00 0.00 0.00 65 1013.0
20260505194753 57 298 1.0 2.0 0.00 0.00 0.00 65 1012.8
20260505194252 57 332 1.0 2.0 0.00 0.00 0.00 65 1012.7
20260505193752 57 360 2.0 3.0 0.00 0.00 0.00 65 1012.6
20260505192807 57 270 0.0 2.0 0.00 0.00 0.00 63 1012.5
20260505192256 58 253 0.0 1.0 0.00 0.00 0.00 63 1012.5
20260505191756 58 323 0.0 1.0 0.00 0.00 0.00 63 1012.5
20260505190755 58 321 1.0 2.0 0.00 0.00 0.00 62 1012.5
20260505190255 58 347 0.0 2.0 0.00 0.00 0.00 62 1012.4
20260505185810 58 354 1.0 2.0 0.00 0.00 0.00 62 1012.3
20260505184814 59 105 2.0 4.0 0.00 0.00 0.00 61 1012.3
20260505184249 60 130 0.0 1.0 0.00 0.00 0.00 60 1012.2
20260505183748 60 130 2.0 3.0 0.00 0.00 0.00 60 1012.6
20260505182803 60 238 0.0 2.0 0.00 0.00 0.00 60 1012.3
20260505182305 60 238 2.0 4.0 0.00 0.00 0.00 60 1012.1
20260505181752 61 285 2.0 4.0 0.00 0.00 0.00 60 1012.2
20260505180806 60 298 1.0 2.0 0.00 0.00 0.00 60 1012.3
20260505180250 60 360 1.0 2.0 0.00 0.00 0.00 61 1012.4
20260505175749 60 18 0.0 1.0 0.00 0.00 0.00 61 1012.3
20260505174804 60 346 2.0 4.0 0.00 0.00 0.00 60 1012.1
20260505174304 60 328 0.0 1.0 0.00 0.00 0.00 61 1012.2
20260505173753 60 332 2.0 3.0 0.00 0.00 0.00 60 1012.3
20260505172753 60 284 2.0 4.0 0.00 0.00 0.00 60 1012.5
20260505172252 60 358 0.0 2.0 0.00 0.00 0.00 60 1012.3
20260505171752 60 358 1.0 2.0 0.00 0.00 0.00 60 1012.2
20260505170807 60 184 0.0 2.0 0.00 0.00 0.00 59 1012.3
20260505170256 60 184 1.0 2.0 0.00 0.00 0.00 60 1012.3
20260505165756 60 157 1.0 2.0 0.00 0.00 0.00 59 1012.2
20260505164756 60 180 1.0 3.0 0.00 0.00 0.00 60 1012.2
20260505164255 61 184 2.0 4.0 0.00 0.00 0.00 60 1012.3
20260505163755 60 315 0.0 2.0 0.00 0.00 0.00 60 1012.4
20260505162754 61 322 0.0 1.0 0.00 0.00 0.00 60 1012.2
20260505162253 61 322 0.0 1.0 0.00 0.00 0.00 60 1012.4
20260505161753 61 330 1.0 2.0 0.00 0.00 0.00 59 1012.3
20260505160753 62 350 1.0 3.0 0.00 0.00 0.00 56 1012.5
20260505160253 62 346 1.0 2.0 0.00 0.00 0.00 55 1012.3
20260505152750 62 56 1.0 3.0 0.00 0.00 0.00 55 1012.4
20260505152250 63 18 2.0 3.0 0.00 0.00 0.00 55 1012.5
20260505151804 62 352 1.0 4.0 0.00 0.00 0.00 57 1012.4
20260505150754 62 17 1.0 2.0 0.00 0.00 0.00 56 1012.5
20260505140300 61 4 1.0 2.0 0.00 0.00 0.00 60 1012.7
20260505124806 64 50 2.0 4.0 0.00 0.00 0.00 53 1013.0
20260505124250 64 278 1.0 2.0 0.00 0.00 0.00 52 1013.0
20260505123750 65 271 2.0 3.0 0.00 0.00 0.00 52 1012.8
20260505122804 65 332 2.0 4.0 0.00 0.00 0.00 52 1013.0
20260505122249 66 309 4.0 7.0 0.00 0.00 0.00 53 1013.0
20260505121749 65 308 3.0 4.0 0.00 0.00 0.00 53 1013.0
20260505120803 64 357 4.0 5.0 0.00 0.00 0.00 52 1013.0
20260505120303 63 355 1.0 2.0 0.00 0.00 0.00 54 1013.1
20260505115803 63 22 2.0 4.0 0.00 0.00 0.00 55 1013.1
20260505114802 61 68 1.0 2.0 0.00 0.00 0.00 59 1013.1
20260505114251 61 71 2.0 4.0 0.00 0.00 0.00 59 1013.2
20260505113751 61 87 1.0 2.0 0.00 0.00 0.00 60 1013.0
20260505112751 61 74 3.0 7.0 0.00 0.00 0.00 56 1013.3
20260505112251 63 62 5.0 8.0 0.00 0.00 0.00 55 1013.3
20260505111805 63 108 0.0 2.0 0.00 0.00 0.00 56 1013.2
20260505110755 64 6 1.0 2.0 0.00 0.00 0.00 58 1013.3
20260505110254 63 33 1.0 2.0 0.00 0.00 0.00 59 1013.3
20260505101756 61 80 1.0 2.0 0.00 0.00 0.00 62 1013.8
20260505101256 61 68 0.0 1.0 0.00 0.00 0.00 63 1013.8
20260505100810 61 67 2.0 4.0 0.00 0.00 0.00 62 1013.6
20260505100310 61 92 2.0 4.0 0.00 0.00 0.00 67 1013.6
20260505095810 60 53 2.0 2.0 0.00 0.00 0.00 71 1013.5
20260505095309 58 358 2.0 2.0 0.00 0.00 0.00 72 1013.6
20260505094809 58 340 1.0 3.0 0.00 0.00 0.00 72 1013.8
20260505094308 58 317 1.0 3.0 0.00 0.00 0.00 72 1013.8
20260505093808 58 3 0.0 2.0 0.00 0.00 0.00 72 1013.8
20260505093258 58 27 0.0 2.0 0.00 0.00 0.00 71 1013.8
20260505092757 59 39 2.0 3.0 0.00 0.00 0.00 69 1013.8
20260505092312 59 91 1.0 3.0 0.00 0.00 0.00 69 1013.7
20260505091756 59 92 1.0 2.0 0.00 0.00 0.00 69 1013.7
20260505091256 59 100 2.0 4.0 0.00 0.00 0.00 68 1013.9
20260505090756 59 144 3.0 6.0 0.00 0.00 0.00 66 1013.8
20260505090310 60 194 2.0 4.0 0.00 0.00 0.00 67 1013.9
20260505085810 60 355 1.0 2.0 0.00 0.00 0.00 69 1013.8
20260505085309 59 342 2.0 3.0 0.00 0.00 0.00 68 1013.9
20260505084809 60 314 1.0 2.0 0.00 0.00 0.00 68 1013.9
20260505084308 60 311 2.0 3.0 0.00 0.00 0.00 70 1014.0
20260505083808 59 349 2.0 3.0 0.00 0.00 0.00 72 1014.0
20260505083308 58 68 0.0 2.0 0.00 0.00 0.00 71 1013.9
20260505082757 58 62 2.0 2.0 0.00 0.00 0.00 70 1014.0
20260505082311 59 105 1.0 2.0 0.00 0.00 0.00 67 1013.9
20260505081756 61 99 2.0 3.0 0.00 0.00 0.00 66 1014.1
20260505081256 61 81 1.0 3.0 0.00 0.00 0.00 70 1014.0
20260505080810 60 79 4.0 5.0 0.00 0.00 0.00 72 1014.0
20260505080315 59 22 1.0 2.0 0.00 0.00 0.00 76 1014.1
20260505075800 57 25 1.0 3.0 0.00 0.00 0.00 78 1013.9
20260505075259 56 352 1.0 2.0 0.00 0.00 0.00 78 1014.1
20260505074759 56 342 0.0 1.0 0.00 0.00 0.00 81 1014.2
20260505074314 56 342 0.0 2.0 0.00 0.00 0.00 82 1014.1
20260505073818 56 347 2.0 4.0 0.00 0.00 0.00 83 1014.3
20260505073308 55 322 2.0 5.0 0.00 0.00 0.00 84 1014.1
20260505072757 54 325 2.0 4.0 0.00 0.00 0.00 85 1014.1
20260505072312 54 333 2.0 4.0 0.00 0.00 0.00 85 1014.2
20260505071756 54 3 0.0 1.0 0.00 0.00 0.00 85 1014.1
20260505071255 53 12 2.0 3.0 0.00 0.00 0.00 87 1014.0
20260505070755 53 338 0.0 2.0 0.00 0.00 0.00 88 1014.2
20260505070309 53 338 2.0 2.0 0.00 0.00 0.00 89 1014.1
20260505065809 53 359 1.0 2.0 0.00 0.00 0.00 89 1014.0
20260505065309 53 10 2.0 3.0 0.00 0.00 0.00 89 1014.2
20260505064808 53 359 2.0 3.0 0.00 0.00 0.00 90 1014.2
20260505064308 53 241 2.0 3.0 0.00 0.00 0.00 90 1014.2
20260505063808 53 285 0.0 1.0 0.00 0.00 0.00 90 1014.1
20260505063307 52 291 0.0 0.0 0.00 0.00 0.00 91 1014.1
20260505062807 52 293 1.0 2.0 0.00 0.00 0.00 91 1014.2
20260505062306 52 287 2.0 2.0 0.00 0.00 0.00 91 1014.1
20260505061806 52 317 1.0 2.0 0.00 0.00 0.00 92 1014.1
20260505061306 51 328 2.0 4.0 0.00 0.00 0.00 92 1014.0
20260505060806 51 337 1.0 2.0 0.00 0.00 0.00 92 1014.2
20260505060305 51 328 1.0 2.0 0.00 0.00 0.00 92 1014.1
20260505055805 51 334 1.0 2.0 0.00 0.00 0.00 92 1014.1
20260505055304 51 351 2.0 3.0 0.00 0.00 0.00 92 1014.2
20260505054804 51 315 0.0 2.0 0.00 0.00 0.00 92 1013.9
20260505054304 51 315 1.0 2.0 0.00 0.00 0.00 92 1014.1
20260505053804 51 180 0.0 1.0 0.00 0.00 0.00 92 1014.1
20260505053318 51 180 0.0 0.0 0.00 0.00 0.00 92 1013.9
20260505052808 51 180 0.0 1.0 0.00 0.00 0.00 92 1014.1
20260505052308 51 180 0.0 0.0 0.00 0.00 0.00 92 1014.0
20260505051807 51 180 0.0 0.0 0.00 0.00 0.00 92 1013.9
20260505051307 51 180 0.0 1.0 0.00 0.00 0.00 92 1013.9
20260505050807 51 90 0.0 1.0 0.00 0.00 0.00 92 1014.1
20260505050306 51 90 0.0 1.0 0.00 0.00 0.00 92 1014.3